Regional Weather Roundup
Issued by NWS

Home | Current Version | Previous Version | Graphics & Text | Print | Product List | Glossary On
Versions: 1 2 3 4 5 6 7 8 9 10 11 12 13 14 15 16 17 18 19 20 21 22 23 24 25 26 27 28 29 30 31 32 33 34 35 36 37 38 39 40 41 42 43 44 45 46 47 48 49 50
000
ASUS45 KABQ 270801
RWRNM
WEATHER ROUNDUP FOR NEW MEXICO
NATIONAL WEATHER SERVICE ALBUQUERQUE NM
100 AM MST FRI FEB 27 2015

NOTE: "FAIR" MEANS FEW OR NO CLOUDS BELOW 12,000 FEET AGL WITH NO
       SIGNIFICANT WEATHER OR OBSTRUCTIONS TO VISION.

      THIS PRODUCT IS RELEASED AS TWO VERSIONS.  ONE VERSION NEAR
      THE TOP OF THE HOUR CONTAINING PRELIMINARY DATA FROM ALBUQUERQUE
      AND OTHER STATIONS.  A FINAL VERSION WITH ADDITIONAL DATA IS
      ISSUED ABOUT 10 MINUTES AFTER THE HOUR.

NMZ501-503-504-510>518-270900-
NORTHWEST PLATEAU/NORTHCENTRAL MOUNTAINS

CITY           SKY/WX    TMP DP  RH WIND       PRES   REMARKS
FARMINGTON     CLOUDY    30  29  96 W6        29.84S FOG     WCI  24
LOS ALAMOS     SNOW      15  15 100 S12G23    29.93  VSB 1/2 WCI   2
SANTA FE       FLURRIES  18  11  74 SE20G28   29.95S WCI   2
TAOS           CLOUDY    18  12  79 SW10      29.89F WCI   6
ANGEL FIRE     LGT SNOW  10   6  82 S16       29.88F WCI  -7

$$
NMZ402-403-502-505>509-270900-
WESTCENTRAL MOUNTAINS/SOUTHWEST MOUNTAINS

CITY           SKY/WX    TMP DP  RH WIND       PRES   REMARKS
GALLUP         CLEAR     32  28  85 CALM      29.86F
GRANTS         CLOUDY    25  24  94 SE10      29.91R WCI  15
SILVER CITY    CLOUDY    36  25  64 S10       29.95S WCI  28

$$
NMZ407-409-411-412-270900-
SOUTHERN DESERTS

CITY           SKY/WX    TMP DP  RH WIND       PRES   REMARKS
LORDSBURG      FAIR      39  27  60 SE18      29.91R WCI  30
DEMING         CLOUDY    36  25  64 MISG      29.95R
LAS CRUCES     CLOUDY    34  25  70 SE15      29.96S WCI  24
HOLLOMAN AFB   LGT SNOW  32  30  93 E3        29.98F
ALAMOGORDO     LGT SNOW  32  32 100 MISG      30.00F
T OR C         MOCLDY    34  33  96 N5        29.92S WCI  30

$$
NMZ519>523-270900-
CENTRAL VALLEYS/CENTRAL HIGHLANDS

CITY           SKY/WX    TMP DP  RH WIND       PRES   REMARKS
ALBUQUERQUE    LGT SNOW  24  18  77 E20       29.96S WCI  10
DOUBLE EAGLE   LGT SNOW  22  20  91 N7        29.97R WCI  14
MORIARTY ARPT  LGT SNOW  17  14  86 E12       30.02F VSB 3/4 WCI   4
CLINES CORNERS SNOW      13   9  84 E16       29.96R VSB 1/2 WCI  -3
BELEN          LGT SNOW  29  29  99 SE10      29.95S WCI  20
SOCORRO        LGT SNOW  31  31  99 CALM      29.97F

$$
NMZ524>526-539-540-270900-
SOUTHCENTRAL MOUNTAINS

CITY           SKY/WX    TMP DP  RH WIND       PRES   REMARKS
RUIDOSO        NOT AVBL

$$
NMZ527>531-270900-
NORTHEAST HIGHLANDS/NORTHEAST PLAINS

CITY           SKY/WX    TMP DP  RH WIND       PRES   REMARKS
LAS VEGAS      HVY SNOW  12   8  84 SE12      30.02S VSB 1/4 WCI  -2
RATON          LGT SNOW  12   9  87 S15       30.02S FOG     WCI  -4
CLAYTON        LGT SNOW  13   9  84 E13       30.15F VSB 3/4 WCI  -2

$$
NMZ532>537-270900-
EASTCENTRAL PLAINS

CITY           SKY/WX    TMP DP  RH WIND       PRES   REMARKS
TUCUMCARI      LGT SNOW  20  17  88 E18       30.19F VSB 1   WCI   5
CANNON AFB     LGT SNOW  17  14  90 SE13      30.18F FOG     WCI   3
CLOVIS AIRPORT CLOUDY    16  12  86 SE16      30.20F VSB 1   WCI   0

$$
NMZ028-029-538-270900-
SOUTHEAST PLAINS

CITY           SKY/WX    TMP DP  RH WIND       PRES   REMARKS
ROSWELL        LGT SNOW  23  21  92 SE12      30.18S VSB 3/4 WCI  12
ARTESIA        LGT SNOW  23  23 100 E8        30.19F VSB 1   WCI  14
CARLSBAD       CLOUDY    28  19  69 E8        30.19F WCI  20
HOBBS          LGT SNOW  21  18  86 E14       30.20F WCI   8


$$



USA.gov is the U.S. government's official web portal to all federal, state and local government web resources and services.